Location: Unspecified
(38.0989°N, 0.6729°W)
Time: 16:56:40
(UTC+02:00)

Envisat - Visible Passes

Search period start: 21 July 2018 00:00
Search period end: 31 July 2018 00:00
Orbit: 764 x 766 km, 98.2° (Epoch: 21 July)

Date Brightness Start Highest point End Pass type
(mag) Time Alt. Az. Time Alt. Az. Time Alt. Az.
22 Jul 5.6 22:34:18 10° SW 22:37:16 15° W 22:40:14 10° NW visible
23 Jul 4.6 21:55:38 10° SSW 22:00:15 35° W 22:04:55 10° NNW visible
25 Jul 5.5 22:22:21 10° SW 22:26:00 20° W 22:29:40 10° NW visible
26 Jul 4.2 21:44:13 10° S 21:49:02 45° W 21:53:56 10° NNW visible
27 Jul 6.0 22:50:56 10° W 22:51:50 10° W 22:52:44 10° W visible
28 Jul 5.2 22:10:36 10° SSW 22:14:45 25° W 22:18:56 10° NW visible
29 Jul 3.7 21:32:52 10° S 21:37:51 58° W 21:42:53 10° NNW visible
30 Jul 5.7 22:37:59 10° WSW 22:40:32 14° W 22:43:08 10° WNW visible
